San Jose, Costa Rica

8:09 PM CST on April 26, 2018 (GMT -0600)
Juan Santamaria International

Weather History for MROC - December, 2010

Change the Weather History Date:

Tuesday, December 21, 2010

  Actual Average Record
Temperature  
Mean Temperature 70 °F -  
Max Temperature 79 °F 80 °F 85 °F (2013)
Min Temperature 62 °F 63 °F 60 °F (2008)
Cooling Degree Days 6    
Growing Degree Days 20 (Base 50)    
Moisture  
Dew Point 55 °F    
Average Humidity 58    
Maximum Humidity 83    
Minimum Humidity 23    
Precipitation  
Precipitation 0.00 in 0.02 in - ()
Sea Level Pressure  
Sea Level Pressure 30.00 in    
Wind  
Wind Speed 10 mph ()    
Max Wind Speed 17 mph    
Max Gust Speed 25 mph    
Visibility 7.9 miles    
Events      
Averages and records for this station are not official NWS values.
T = Trace of Precipitation, MM = Missing Value Source: Averaged Metar Reports

Daily Weather History Graph

Daily Weather History Graph

Search for Another Location

Airport or City:

Astronomy

Dec. 21, 2010 Rise Set
Actual Time 5:48 AM CST 5:21 PM CST
Civil Twilight 5:25 AM CST 5:44 PM CST
Nautical Twilight 4:59 AM CST 6:10 PM CST
Astronomical Twilight 4:33 AM CST 6:36 PM CST
Moon 5:54 PM CST (12/21) 6:00 AM CST (12/21)
Length of Visible Light 12h 18m
Length of Day
11h 32m
Full, 100% of the Moon is Illuminated
Dec 21
Full
Dec 27
Last Quarter
Jan 4
New
Jan 12
First Quarter
Jan 19
Full

Hourly Weather History & Observations

Time (CST) Temp. Dew Point Humidity Pressure Visibility Wind Dir Wind Speed Gust Speed Precip Events Conditions
12:00 AM 66 °F 52 °F 50% 29.88 in 12 mi East 8.1 mph - -  
12:00 AM 66.2 °F 51.8 °F 60% 30.03 in 6.2 mi East 8.1 mph - N/A   Unknown
1:00 AM 66.2 °F 53.6 °F 64% 30.01 in 6.2 mi SE 15.0 mph - N/A   Unknown
2:00 AM 64.4 °F 55.4 °F 73% 30.00 in 6.2 mi SE 10.4 mph - N/A   Unknown
3:00 AM 64 °F 55 °F 66%  in 12 mi ESE 13.8 mph - -  
3:00 AM 64.4 °F 55.4 °F 73% 30.00 in 6.2 mi ESE 13.8 mph - N/A   Unknown
4:00 AM 64.4 °F 55.4 °F 73% 30.01 in 6.2 mi ESE 11.5 mph - N/A   Unknown
5:00 AM 62.6 °F 55.4 °F 77% 30.02 in 6.2 mi ESE 9.2 mph - N/A   Unknown
6:00 AM 63 °F 55 °F 69% 29.91 in 12 mi East 5.8 mph - -  
6:00 AM 62.6 °F 55.4 °F 77% 30.03 in 6.2 mi East 5.8 mph - N/A   Unknown
7:00 AM 66.2 °F 55.4 °F 68% 30.05 in 6.2 mi ESE 10.4 mph - N/A   Partly Cloudy
8:00 AM 69.8 °F 55.4 °F 60% 30.07 in 6.2 mi ESE 10.4 mph - N/A   Unknown
9:00 AM 73 °F 54 °F 40% 29.92 in 12 mi ESE 15.0 mph - -  
9:00 AM 73.4 °F 53.6 °F 50% 30.06 in 6.2 mi ESE 15.0 mph - N/A   Unknown
10:00 AM 75.2 °F 53.6 °F 47% 30.06 in 6.2 mi ESE 13.8 mph - N/A   Unknown
11:00 AM 77.0 °F 55.4 °F 47% 30.05 in 6.2 mi ESE 9.2 mph - N/A   Partly Cloudy
11:38 AM 77.0 °F 55.4 °F 47% 30.03 in 6.2 mi ESE 13.8 mph 25.3 mph N/A   Partly Cloudy
12:00 PM 77 °F 55 °F 37% 29.89 in 12 mi East 17.3 mph - -   Scattered Clouds
12:00 PM 77.0 °F 55.4 °F 47% 30.03 in 6.2 mi East 17.3 mph - N/A   Partly Cloudy
1:00 PM 78.8 °F 55.4 °F 44% 30.00 in 6.2 mi ESE 16.1 mph - N/A   Partly Cloudy
2:00 PM 78.8 °F 51.8 °F 39% 29.99 in - East 11.5 mph - N/A   Clear
3:00 PM 79 °F 48 °F 23% 29.85 in 12 mi East 13.8 mph - -   Scattered Clouds
3:00 PM 78.8 °F 48.2 °F 34% 29.98 in - East 13.8 mph 25.3 mph N/A   Clear
4:00 PM 77.0 °F 48.2 °F 36% 29.99 in - East 15.0 mph - N/A   Clear
5:00 PM 73.4 °F 55.4 °F 53% 30.00 in - East 11.5 mph - N/A   Clear
6:00 PM 70 °F 55 °F 50% 29.89 in 12 mi ESE 8.1 mph - -   Scattered Clouds
6:00 PM 69.8 °F 55.4 °F 60% 30.02 in 6.2 mi ESE 8.1 mph - N/A   Partly Cloudy
7:00 PM 68.0 °F 57.2 °F 68% 30.05 in 6.2 mi SE 9.2 mph - N/A   Partly Cloudy
8:00 PM 66.2 °F 59.0 °F 78% 30.07 in - ESE 6.9 mph - N/A   Clear
9:00 PM 66 °F 57 °F 66% 29.94 in 12 mi SE 10.4 mph - -   Scattered Clouds
9:00 PM 66.2 °F 57.2 °F 73% 30.08 in 6.2 mi SE 10.4 mph - N/A   Partly Cloudy
10:00 PM 66.2 °F 60.8 °F 83% 30.08 in 6.2 mi ESE 11.5 mph - N/A   Partly Cloudy
11:00 PM 64.4 °F 59.0 °F 83% 30.08 in 6.2 mi ESE 5.8 mph - N/A   Partly Cloudy